Regional Weather Roundup
Issued by NWS

Home | Current Version | Previous Version | Text Only | Print | Product List | Glossary On
Versions: 1 2 3 4 5 6 7 8 9 10 11 12 13 14 15 16 17 18 19 20 21 22 23 24 25 26 27 28 29 30 31 32 33 34 35 36 37 38 39 40 41 42 43 44 45 46 47 48 49 50
000
ASUS45 KBOU 262007
RWRCO

WEATHER ROUNDUP FOR COLORADO
NATIONAL WEATHER SERVICE DENVER/BOULDER CO
200 PM MDT MON JUN 26 2017

NOTE: "FAIR" INDICATES FEW OR NO CLOUDS BELOW 12000 FEET WITH NO
SIGNIFICANT WEATHER AND/OR OBSTRUCTIONS TO VISIBILITY.

COZ001>005-013-030-031-262100-
...NORTHWEST COLORADO...

CITY           SKY/WX    TMP DP  RH WIND       PRES   REMARKS
CRAIG          FAIR      86  25  11 NW5       30.22F
HAYDEN         FAIR      81  25  12 E5        30.25F
MEEKER         FAIR      85  23  10 SW9       30.22F
RABBIT EARS PA FAIR      64  27  24 W8        30.57S
STEAMBOAT SPGS FAIR      80  31  16 SW7       30.27F
WALDEN         FAIR      75  30  19 SE7       30.38F
$$

COZ006>008-011-262100-
...WEST CENTRAL VALLEYS...

CITY           SKY/WX    TMP DP  RH WIND       PRES   REMARKS
GRAND JUNCTION FAIR      95  26   8 W8G16     30.08F
MONTROSE       FAIR      90  27  10 N10       30.17F
EAGLE          SUNNY     82  28  14 SE7       30.26F
RIFLE          FAIR      91  24   9 VRB6      30.15F
DELTA          FAIR      95  26   8 SE5       30.12F
NUCLA          FAIR      91  21   8 N10       30.22F
$$

COZ017>023-064>068-262100-
...SOUTHWEST COLORADO...

CITY           SKY/WX    TMP DP  RH WIND       PRES   REMARKS
DURANGO        FAIR      86  34  15 W9G16     30.26F
CORTEZ         FAIR      90  29  11 SW7G16    30.20F
PAGOSA SPRINGS FAIR      79  32  18 W10       30.33F
TELLURIDE      FAIR      77  19  11 W7G20     30.46F
WOLF CREEK PAS PTSUNNY   54  34  47 S17G26    30.70F THUNDER
$$

COZ009-010-012-014-032>034-037-058>063-262100-
...CENTRAL COLORADO...

CITY           SKY/WX    TMP DP  RH WIND       PRES   REMARKS
ASPEN          FAIR      81  23  11 NW15G22   30.32F
BUENA VISTA    FAIR      81  24  12 NE5       30.32F
COPPER MTN     FAIR      64   5   9 NW12G22   30.67F
BERTHOUD PASS  FAIR      54  39  58 NW8G16    30.70F
COTTONWOOD PAS FAIR      79  23  12 N5        30.47F
GUNNISON       FAIR      79  34  19 VRB6      30.32F
KREMMLING      NOT AVBL
LEADVILLE      FAIR      71   9   9 W14G23    30.47F
MONARCH PASS   PTSUNNY   63  28  27 SW9G25    30.76F
SALIDA         FAIR      81  37  20 SW8       30.35F
SUNLIGHT       FAIR      70  28  21 SW7       30.61F
WILKERSON PASS FAIR      68  21  17 SW3       30.62F HAZE
$$

COZ069>075-262100-
...SAN LUIS VALLEY/SANGRE DE CRISTO MOUNTAINS...

CITY           SKY/WX    TMP DP  RH WIND       PRES   REMARKS
ALAMOSA        FAIR      78  36  21 VRB5      30.31F
DEL NORTE      FAIR      71  44  36 E7        30.37F
LA VETA PASS   PTSUNNY   63  50  63 N8        30.64F
SAGUACHE       FAIR      79  39  24 SE8       30.32F
$$

COZ035-036-038>040-262100-
...NORTHERN COLORADO FRONT RANGE...

CITY           SKY/WX    TMP DP  RH WIND       PRES   REMARKS
DENVER INTL AP FAIR      86  42  21 NE12G17   30.18F
DMNS CITY PARK   N/A     86  37  17 E8G16     30.18F
AURORA         MOSUNNY   84  38  19 W3        30.20F
FRONT RANGE AP MOSUNNY   86  39  19 N6        30.20F
ERIE MUNI ARPT FAIR      83  43  24 NW3       30.17F
BOULDER MUN AP FAIR      81  45  28 NE6       30.19F
CENTENNIAL     FAIR      84  33  16 NE12      30.21F
BROOMFIELD     FAIR      81  41  24 CALM      30.22F
FORT COLLINS   FAIR      85  48  27 VRB6      30.18F
LONGMONT       FAIR      87  48  26 SE6       30.20F
$$

COZ041-046-047-076>085-087-088-262100-
...PIKES PEAK/PALMER DIVIDE AND SOUTHERN FOOTHILLS...

CITY           SKY/WX    TMP DP  RH WIND       PRES   REMARKS
COLO. SPRINGS  FAIR      81  44  27 E9        30.25F
A. F. ACADEMY  FAIR      78  44  30 SE12      30.26F
SCHRIEVER AFB  FAIR      80  42  26 S9G18     30.26F
CHEYENNE MTN   FAIR      73  45  36 MISG      30.26F
ELLICOTT       FAIR     N/A N/A N/A S6        30.24F
FALCON           N/A     82  33  17 SE5       30.31F
FORT CARSON    MOSUNNY   82  44  26 CALM      30.22F
LIMON          FAIR      85  41  21 CALM      30.19F
MONUMENT HILL  FAIR      77  32  19 E10       30.32F
CANON CITY     SUNNY     88  50  27 E9G18     30.17F
WALSENBURG     FAIR      84  52  32 NE3       30.23F
TRINIDAD       FAIR      80  53  39 S7        30.23F
$$

COZ042>045-048>051-090-091-262100-
...NORTHEAST COLORADO...

CITY           SKY/WX    TMP DP  RH WIND       PRES   REMARKS
GREELEY ARPT   FAIR      85  46  25 SE6       30.16F
AKRON          CLOUDY    80  52  37 SE9       30.17F
BURLINGTON     FAIR      83  52  34 CALM      30.16F
WRAY           FAIR      82  54  36 E9        30.14F
YUMA           FAIR      79  54  41 E8        30.15F
STERLING       FAIR      84  52  32 E5        30.14F
HOLYOKE        NOT AVBL
FORT MORGAN    FAIR      85  47  26 NE7       30.17F
$$

COZ086-089-092>099-262100-
...SOUTHEAST COLORADO...

CITY           SKY/WX    TMP DP  RH WIND       PRES   REMARKS
PUEBLO         FAIR      86  55  34 E8        30.14F
LA JUNTA       FAIR      85  58  39 CALM      30.14F
LAMAR          FAIR      87  57  35 NE8       30.10F
SPRINGFIELD      N/A     83  57  41 SE6       30.15F
$$



USA.gov is the U.S. government's official web portal to all federal, state and local government web resources and services.